Temperature
15 14 14 13 13 12 12 12 11 11 11 10 10 10 9 9 9 8 8 8 8 7 7 7 6 6 5 5 4 4 3 3 2 2 2 1 1 1 0 -0 -1 -1 -1
15 14 13 13 12 11 11 11 11 10 10 10 10 9 9 9 8 8 8 8 7 7 7 6 6 6 5 5 4 3 3 2 1 1 1 1 1 0 -0 -1 -1 -2 -2
14 13 12 12 11 11 11 11 10 10 10 10 9 9 9 8 8 8 8 7 7 7 6 6 6 5 5 4 3 3 2 2 1 0 0 0 -0 -1 -1 -2 -2 -2 -3
13 13 12 12 11 11 10 10 10 10 9 9 9 9 8 8 8 8 7 7 7 6 6 6 5 5 4 3 3 2 2 1 0 -0 -0 -1 -1 -2 -2 -3 -3 -3 -3
13 12 12 11 11 10 10 10 9 9 9 9 9 8 8 8 8 7 7 7 6 6 6 5 5 4 3 3 2 2 1 0 -0 -1 -1 -2 -2 -2 -3 -3 -4 -4 -4
13 12 12 11 10 10 10 9 9 9 9 8 8 8 8 8 7 7 7 6 6 6 5 5 4 4 3 2 2 1 0 -0 -1 -1 -2 -2 -3 -3 -4 -4 -5 -5 -5
13 12 11 11 10 10 9 9 9 8 8 8 8 8 7 7 7 7 6 6 5 5 5 4 4 3 2 2 1 0 -0 -1 -1 -2 -3 -3 -3 -4 -4 -5 -5 -6 -6
12 11 11 10 10 9 9 9 8 8 8 8 7 7 7 7 6 6 6 5 5 4 4 3 3 2 2 1 0 -0 -1 -1 -2 -3 -3 -3 -4 -4 -5 -6 -6 -6 -6
12 11 11 10 10 9 9 9 8 8 7 7 7 7 7 6 6 5 5 5 4 4 3 3 2 2 1 0 -1 -1 -1 -2 -2 -3 -4 -4 -4 -5 -6 -6 -6 -7 -7
12 12 11 10 10 9 9 8 8 7 7 7 7 6 6 6 5 5 4 4 4 3 3 2 1 1 0 -1 -1 -2 -2 -2 -3 -3 -4 -4 -5 -5 -6 -7 -7 -7 -8
12 11 11 10 9 9 8 8 7 7 7 6 6 6 5 5 5 4 4 3 3 2 2 1 1 0 -1 -1 -2 -2 -3 -3 -4 -4 -4 -5 -5 -6 -6 -7 -7 -8 -8
12 11 10 9 9 8 8 7 7 6 6 6 6 5 5 4 4 3 3 3 2 2 1 1 0 -1 -1 -2 -2 -3 -3 -4 -4 -5 -5 -6 -6 -6 -7 -7 -8 -8 -8
11 11 10 9 8 8 7 7 6 6 6 5 5 5 4 4 3 3 2 2 1 1 0 -0 -1 -1 -2 -2 -3 -4 -4 -5 -5 -6 -6 -6 -7 -7 -8 -8 -8 -8 -8
11 10 9 9 8 7 7 6 6 6 5 5 5 4 4 3 3 2 2 1 1 -0 -1 -1 -1 -2 -2 -3 -3 -4 -5 -5 -6 -6 -7 -7 -7 -8 -8 -8 -9 -9 -9
10 10 9 8 7 7 6 6 5 5 5 5 4 4 3 3 2 2 1 0 -0 -1 -1 -1 -2 -2 -3 -3 -4 -5 -5 -6 -6 -7 -7 -8 -8 -8 -9 -9 -9 -9 -10
10 9 8 8 7 7 6 5 5 5 4 4 3 3 2 2 1 1 0 -0 -1 -1 -2 -2 -2 -3 -3 -4 -5 -5 -6 -7 -7 -8 -8 -8 -9 -9 -9 -9 -10 -10 -10
10 9 8 7 7 6 6 5 5 4 3 3 2 2 2 1 1 0 -0 -1 -1 -2 -2 -3 -3 -4 -4 -5 -5 -6 -7 -7 -8 -8 -9 -9 -9 -9 -10 -10 -10 -10 -10
9 8 8 7 6 6 5 5 4 4 3 2 2 1 1 0 0 -0 -1 -1 -2 -2 -3 -3 -4 -4 -5 -6 -6 -7 -7 -8 -8 -9 -9 -9 -10 -10 -10 -10 -10 -11 -11
8 8 7 6 6 5 5 4 3 3 2 2 1 1 0 -0 -1 -1 -2 -2 -2 -3 -3 -4 -4 -5 -6 -6 -7 -7 -8 -8 -9 -9 -9 -10 -10 -10 -10 -10 -11 -11 -11
7 7 6 6 5 5 4 3 3 2 2 1 1 0 -0 -1 -1 -2 -2 -2 -3 -3 -4 -4 -5 -6 -6 -7 -7 -8 -8 -9 -9 -10 -10 -10 -10 -11 -11 -11 -11 -11 -11
7 6 5 5 4 4 3 3 2 2 1 1 0 -0 -1 -1 -2 -2 -3 -3 -4 -4 -5 -5 -5 -6 -7 -7 -8 -8 -9 -9 -9 -10 -10 -10 -11 -11 -11 -11 -11 -11 -11
6 5 5 4 4 3 3 2 2 1 0 -0 -1 -1 -2 -2 -2 -3 -3 -4 -4 -5 -5 -6 -6 -6 -7 -8 -8 -9 -9 -9 -10 -10 -10 -11 -11 -11 -11 -11 -11 -11 -11
5 5 4 3 3 2 2 1 1 0 -0 -1 -1 -2 -2 -2 -3 -3 -4 -4 -5 -5 -5 -6 -6 -7 -7 -8 -8 -9 -9 -9 -10 -10 -11 -11 -11 -11 -11 -11 -11 -11 -11
4 4 3 3 2 2 1 1 -0 -1 -1 -1 -2 -2 -3 -3 -3 -4 -4 -5 -5 -5 -6 -6 -7 -7 -8 -8 -8 -9 -9 -10 -10 -10 -11 -11 -11 -11 -11 -11 -12 -12 -12
3 3 2 2 1 1 0 -0 -1 -1 -2 -2 -3 -3 -3 -4 -4 -4 -5 -5 -6 -6 -6 -7 -7 -8 -8 -8 -9 -9 -9 -10 -10 -11 -11 -11 -11 -11 -11 -11 -12 -12 -12
3 2 1 1 1 0 -0 -1 -1 -2 -2 -3 -3 -4 -4 -4 -5 -5 -5 -6 -6 -6 -7 -7 -7 -8 -8 -8 -9 -9 -9 -10 -10 -11 -11 -11 -11 -12 -12 -12 -12 -12 -12
Wind_Speed
14 14 14 14 13 13 13 13 12 11 12 13 13 13 12 11 10 10 9 9 8 7 6 6 6 5 4 4 3 3 4 4 6 5 4 4 4 6 11 13 15 15 16
12 12 13 12 12 13 12 12 12 12 12 13 12 12 12 11 11 11 11 10 9 9 8 7 6 5 5 4 4 5 5 5 5 7 4 4 5 6 7 8 11 13 14
11 12 12 12 13 13 12 12 12 12 11 11 11 12 12 11 11 11 10 10 10 9 8 8 7 6 6 5 5 5 5 5 5 5 6 4 4 5 5 6 8 9 13
11 12 13 13 13 12 11 11 12 12 12 11 11 11 11 11 10 10 9 9 8 7 7 7 7 7 7 6 6 6 5 5 5 5 6 5 5 5 4 6 7 5 7
11 12 11 10 10 10 11 11 11 11 11 10 10 9 9 9 9 10 9 9 8 7 6 6 6 8 9 7 5 5 5 4 4 5 6 5 5 5 5 5 7 8 7
11 11 10 10 10 10 11 11 11 10 9 9 9 10 9 8 12 15 11 8 8 7 6 5 5 7 9 10 11 9 7 5 5 5 5 6 7 6 6 6 7 8 6
10 10 10 11 11 11 11 11 11 10 9 9 9 9 9 8 12 14 14 8 7 7 6 5 4 5 6 5 8 9 9 11 10 6 6 7 7 6 6 7 7 8 8
10 10 10 11 11 10 11 11 10 9 9 8 8 8 7 7 11 13 13 8 6 6 6 6 5 5 5 5 5 5 6 7 8 6 6 8 7 7 6 6 7 7 6
11 11 11 12 12 11 11 10 8 8 7 7 7 8 7 6 10 11 11 6 5 5 4 4 5 5 8 8 4 5 6 6 9 11 12 12 13 14 11 5 5 6 8
12 11 11 11 12 12 11 9 7 7 7 7 6 6 6 6 8 10 10 5 5 4 3 3 5 6 8 8 4 5 7 6 5 5 6 8 8 9 11 5 4 6 6
10 10 10 10 10 10 9 7 8 8 8 7 6 4 4 5 7 9 10 5 5 4 3 3 4 7 8 9 7 4 8 7 3 4 4 4 4 4 5 5 5 4 5
11 11 10 9 9 9 10 8 8 9 8 7 6 4 3 3 5 7 9 7 5 4 4 4 4 6 7 7 6 8 11 8 2 2 3 3 4 4 5 5 7 7 8
12 11 10 10 8 9 10 10 8 7 7 6 5 5 3 2 3 5 7 6 6 3 3 4 4 5 4 4 7 8 6 2 2 3 4 4 4 5 4 4 5 6 7
13 11 10 10 9 8 7 8 8 7 7 6 5 5 4 3 2 3 3 3 3 2 1 2 2 2 2 3 4 4 2 2 3 3 4 4 3 3 3 3 3 3 4
13 11 10 9 10 8 6 5 6 5 7 7 6 6 6 4 5 6 5 4 3 3 2 1 1 0 1 2 2 2 2 3 3 3 3 4 4 4 4 3 2 2 2
13 11 9 9 8 8 8 6 7 6 8 8 8 7 4 5 6 6 5 4 4 3 2 1 1 2 3 3 3 3 3 3 3 3 4 4 4 4 5 3 2 2 4
14 12 9 9 9 9 8 8 7 6 8 8 8 7 5 5 5 5 4 3 2 2 1 2 2 3 3 3 3 3 3 4 3 3 4 4 4 4 4 4 3 3 4
13 12 11 9 9 8 8 7 7 7 5 3 4 5 5 5 4 4 3 3 1 1 1 3 3 3 3 3 3 3 4 3 3 3 4 4 4 4 4 4 4 4 4
12 10 9 8 8 8 7 7 6 6 5 4 3 2 4 3 3 3 3 2 2 3 3 3 3 3 3 3 4 4 4 4 4 3 4 4 4 3 4 4 4 6 5
10 14 12 9 8 8 7 7 6 6 5 4 3 2 2 2 1 1 1 2 2 3 3 3 3 3 3 4 4 4 4 4 4 4 4 4 4 4 4 5 4 4 4
10 11 13 10 8 7 7 6 6 5 5 4 3 3 4 3 3 2 2 2 3 3 3 3 3 3 3 3 3 4 5 5 4 4 4 4 4 4 4 4 4 4 3
10 9 8 8 7 7 6 6 5 5 5 4 2 2 2 1 2 2 2 3 3 3 3 3 3 3 4 4 4 4 5 5 5 4 4 4 4 4 4 3 3 3 3
10 10 8 7 7 8 7 5 5 4 4 3 3 2 2 2 2 2 3 3 3 3 3 3 3 3 4 5 5 5 5 5 5 5 5 5 4 4 4 4 4 3 3
10 10 9 8 7 6 6 5 4 4 4 3 3 2 2 2 2 3 3 3 3 3 3 4 4 5 6 6 6 7 7 8 8 7 7 6 5 5 4 4 4 4 4
9 9 8 7 7 6 5 5 4 4 3 3 2 2 2 2 2 3 3 3 3 4 4 5 5 6 7 8 8 8 10 12 11 9 6 5 5 5 5 4 4 3 3
8 8 7 6 6 5 5 4 4 3 3 2 2 2 2 3 3 3 3 3 3 4 4 5 6 7 8 8 9 11 12 12 12 11 7 5 5 5 4 4 4 4 3
Wind_Direction
185 186 186 187 185 180 183 185 183 176 172 175 178 177 177 177 175 174 174 170 173 175 177 184 195 184 185 191 189 194 202 195 241 270 255 266 272 277 292 294 296 294 295
182 181 183 181 178 180 183 182 178 176 176 177 175 176 179 179 177 178 178 176 179 183 187 186 199 190 197 198 200 210 215 210 222 267 280 272 265 273 279 287 293 292 291
175 176 178 178 180 182 181 177 175 174 173 172 173 178 179 179 180 182 179 180 184 188 187 191 198 191 207 212 213 218 222 226 222 248 274 270 272 275 285 286 284 285 291
171 175 180 181 181 179 174 171 171 171 171 173 177 179 178 177 178 178 177 179 183 187 189 193 195 199 211 214 218 222 223 229 232 246 268 276 272 272 272 284 293 281 287
170 176 181 175 169 165 165 166 165 167 171 171 170 171 171 173 179 176 177 178 180 185 191 199 205 212 220 220 224 222 216 226 235 249 266 279 281 285 278 275 290 294 285
171 175 168 162 161 162 163 161 161 163 164 163 169 171 173 182 184 183 176 176 180 186 197 207 216 222 234 241 248 247 236 233 237 243 261 270 276 273 276 280 288 299 300
167 165 162 162 163 163 160 159 163 165 161 165 170 171 178 183 181 185 182 174 179 187 193 199 213 225 238 238 253 259 259 261 261 258 257 263 271 269 276 282 280 283 285
164 163 162 161 160 158 158 162 163 161 164 169 170 172 172 178 179 182 180 170 175 186 194 198 208 223 229 236 233 242 250 256 262 262 248 257 261 266 263 275 284 286 276
169 168 166 162 159 158 161 162 158 156 159 162 164 164 167 176 179 179 170 164 177 193 197 199 207 222 247 256 243 248 261 265 272 276 278 282 289 295 301 304 302 300 300
175 168 162 160 160 162 162 155 149 151 153 150 148 159 165 171 179 178 169 162 176 187 195 211 227 241 259 263 243 241 263 267 262 280 286 293 297 302 308 302 281 287 293
156 149 151 154 155 152 146 143 142 139 137 138 139 142 153 164 175 180 175 168 178 182 196 214 231 255 265 270 271 248 267 283 255 258 271 280 287 287 287 281 261 257 272
142 144 146 144 142 140 137 136 138 139 138 139 136 130 132 151 164 182 185 185 177 176 201 213 231 258 270 278 281 282 288 297 290 278 279 279 281 283 282 279 276 265 257
139 141 140 135 134 139 141 140 138 139 142 147 147 150 153 149 171 180 184 187 188 182 203 227 245 261 273 277 284 292 300 299 285 281 279 275 269 269 277 287 287 285 283
139 139 139 138 134 132 135 142 144 149 148 150 155 158 156 159 171 177 180 182 188 193 181 224 264 289 312 303 303 308 303 274 276 267 272 270 276 282 282 282 288 303 310
136 137 136 136 137 131 124 132 143 156 163 162 168 165 164 180 201 190 176 178 179 181 145 114 103 279 275 283 287 286 286 293 293 282 282 288 294 297 296 291 277 282 284
138 139 139 138 135 131 124 104 95 119 134 140 148 153 167 174 177 182 185 182 179 179 139 167 218 239 251 264 274 280 280 278 276 279 281 282 288 291 293 295 286 276 286
143 142 140 139 139 138 136 133 122 96 102 116 129 137 138 144 152 163 166 156 167 158 147 204 230 242 254 261 263 262 266 270 272 273 275 277 281 283 289 293 292 288 289
134 137 139 140 141 141 140 139 139 139 132 104 105 121 125 131 139 149 149 122 148 164 201 222 237 245 252 257 260 264 269 275 273 274 273 273 273 274 281 286 286 280 286
132 134 133 132 131 132 132 131 131 133 134 131 112 110 116 119 123 139 135 147 195 222 230 239 243 248 252 255 259 261 262 265 266 267 269 268 268 265 271 276 279 290 291
127 132 132 131 130 130 131 132 133 135 136 139 148 153 134 110 131 172 177 191 209 229 235 243 249 251 253 255 258 259 263 265 266 262 264 266 265 262 266 270 272 276 277
128 132 130 127 130 134 135 137 139 141 145 151 167 186 180 171 186 204 217 222 225 234 240 245 249 253 254 254 253 255 258 262 258 257 261 263 264 265 265 264 265 264 272
128 129 130 130 130 132 133 135 138 142 151 157 167 192 202 167 196 223 234 240 240 238 238 240 247 247 244 245 249 253 257 260 259 255 258 260 260 260 262 261 263 264 270
125 125 123 124 127 135 130 131 137 144 153 162 173 190 206 213 226 235 242 247 248 252 255 250 251 257 260 261 253 242 247 254 253 247 250 258 258 258 255 253 253 261 266
125 127 128 129 128 130 135 139 142 149 156 169 186 202 215 223 234 246 252 255 257 262 264 260 258 259 264 271 268 261 258 260 258 250 239 244 250 254 250 248 247 248 256
123 125 128 132 134 136 139 143 149 157 167 181 196 212 224 235 246 256 258 256 260 264 267 269 269 269 269 270 272 271 272 273 270 258 237 231 239 241 243 243 242 246 247
121 123 126 129 134 139 145 152 161 168 180 196 207 216 230 242 250 256 260 259 262 267 270 273 268 270 273 275 275 276 278 277 274 268 247 224 227 235 232 235 234 238 242
Height
1421 1426 1431 1437 1442 1448 1453 1458 1463 1468 1472 1477 1481 1485 1488 1491 1494 1497 1499 1501 1503 1504 1505 1506 1507 1507 1506 1505 1504 1503 1502 1500 1496 1493 1493 1491 1489 1486 1483 1480 1476 1473 1469
1417 1422 1427 1432 1437 1443 1448 1453 1458 1463 1467 1471 1476 1479 1482 1486 1489 1491 1494 1496 1498 1499 1501 1501 1502 1502 1501 1500 1499 1498 1497 1495 1492 1488 1486 1485 1483 1480 1477 1473 1470 1466 1462
1413 1418 1422 1427 1432 1438 1443 1448 1453 1458 1462 1466 1470 1474 1477 1480 1483 1486 1489 1491 1493 1494 1496 1496 1497 1496 1496 1495 1494 1493 1491 1489 1487 1483 1480 1478 1476 1474 1470 1466 1463 1459 1456
1410 1414 1418 1423 1428 1433 1439 1443 1448 1453 1457 1461 1465 1469 1472 1475 1478 1481 1483 1486 1487 1489 1490 1491 1491 1491 1490 1489 1488 1487 1485 1484 1481 1478 1475 1472 1470 1467 1463 1459 1455 1452 1449
1406 1410 1415 1420 1425 1430 1434 1439 1444 1448 1453 1457 1460 1464 1467 1470 1473 1476 1478 1480 1482 1484 1485 1485 1486 1485 1485 1484 1482 1481 1480 1477 1475 1472 1469 1466 1463 1461 1457 1453 1448 1444 1441
1403 1407 1412 1416 1421 1425 1430 1435 1440 1444 1448 1452 1455 1459 1462 1465 1468 1471 1473 1475 1476 1478 1479 1480 1480 1480 1479 1478 1477 1476 1474 1472 1469 1467 1463 1461 1458 1455 1452 1448 1443 1438 1433
1400 1404 1408 1413 1417 1422 1426 1431 1435 1440 1444 1447 1451 1454 1457 1460 1463 1465 1467 1469 1471 1472 1473 1474 1474 1474 1473 1472 1471 1470 1468 1467 1465 1462 1458 1455 1452 1449 1446 1442 1438 1434 1430
1397 1401 1405 1409 1414 1418 1423 1427 1431 1436 1440 1443 1446 1450 1453 1456 1458 1460 1462 1464 1465 1467 1468 1468 1468 1468 1467 1466 1464 1463 1461 1460 1458 1456 1453 1450 1447 1444 1441 1437 1433 1428 1424
1394 1398 1402 1406 1410 1414 1419 1423 1427 1432 1436 1439 1442 1445 1448 1451 1453 1455 1457 1458 1459 1461 1462 1462 1462 1462 1461 1460 1458 1456 1455 1453 1452 1449 1447 1444 1442 1439 1436 1432 1427 1423 1417
1390 1395 1399 1403 1407 1411 1416 1420 1424 1428 1432 1436 1438 1441 1444 1446 1448 1450 1451 1452 1454 1455 1456 1456 1456 1456 1455 1454 1452 1450 1448 1447 1445 1442 1440 1438 1436 1433 1430 1427 1423 1419 1414
1388 1392 1396 1401 1405 1409 1413 1417 1421 1425 1428 1431 1435 1437 1439 1441 1443 1445 1446 1447 1448 1449 1450 1451 1451 1450 1449 1448 1447 1445 1443 1441 1438 1436 1433 1431 1429 1427 1424 1421 1418 1415 1411
1385 1389 1393 1398 1402 1406 1410 1414 1418 1422 1425 1428 1430 1433 1435 1437 1439 1440 1441 1442 1443 1444 1445 1445 1445 1445 1444 1443 1441 1439 1438 1435 1433 1430 1428 1425 1423 1421 1418 1415 1413 1410 1407
1382 1386 1391 1395 1400 1404 1407 1411 1415 1418 1421 1424 1426 1428 1431 1433 1434 1435 1437 1438 1439 1439 1440 1440 1440 1439 1438 1437 1435 1434 1432 1429 1427 1424 1422 1420 1418 1415 1412 1409 1407 1404 1402
1379 1383 1388 1392 1397 1401 1405 1408 1411 1414 1417 1420 1422 1424 1426 1428 1430 1431 1432 1433 1434 1435 1435 1435 1435 1434 1433 1432 1430 1428 1426 1424 1422 1419 1417 1415 1413 1410 1407 1405 1402 1399 1397
1376 1381 1385 1390 1394 1398 1402 1406 1409 1412 1415 1417 1419 1421 1422 1424 1426 1427 1428 1429 1429 1430 1430 1430 1429 1428 1427 1426 1425 1423 1421 1419 1417 1415 1412 1410 1408 1405 1403 1401 1398 1396 1393
1372 1378 1382 1387 1392 1396 1399 1403 1406 1410 1412 1414 1416 1418 1419 1421 1422 1423 1424 1425 1425 1425 1425 1424 1424 1423 1422 1420 1419 1417 1416 1414 1412 1410 1408 1406 1404 1401 1399 1397 1395 1393 1390
1370 1375 1380 1385 1389 1393 1396 1399 1403 1406 1409 1411 1413 1414 1416 1417 1418 1419 1420 1421 1421 1421 1420 1419 1419 1418 1417 1415 1414 1412 1410 1409 1407 1405 1403 1402 1400 1398 1396 1393 1391 1389 1387
1369 1374 1378 1383 1387 1391 1394 1397 1400 1403 1405 1407 1410 1411 1413 1414 1415 1416 1416 1416 1416 1416 1415 1415 1414 1413 1412 1410 1409 1407 1406 1404 1402 1401 1399 1397 1396 1394 1392 1390 1388 1386 1384
1367 1372 1377 1381 1385 1389 1392 1395 1398 1401 1403 1405 1407 1408 1410 1410 1411 1412 1412 1411 1411 1411 1410 1410 1409 1408 1407 1405 1404 1402 1401 1399 1398 1396 1395 1393 1392 1390 1388 1387 1385 1384 1382
1367 1371 1375 1379 1383 1387 1390 1393 1396 1398 1400 1402 1403 1405 1406 1406 1407 1407 1407 1407 1407 1406 1406 1405 1404 1403 1402 1400 1399 1397 1396 1394 1393 1392 1390 1389 1388 1386 1385 1383 1382 1381 1379
1365 1370 1374 1378 1382 1385 1388 1391 1393 1396 1397 1399 1400 1401 1402 1402 1403 1403 1403 1403 1402 1402 1401 1400 1399 1398 1397 1395 1394 1392 1391 1389 1388 1387 1386 1385 1384 1382 1381 1380 1379 1378 1377
1364 1368 1372 1376 1380 1383 1386 1389 1391 1393 1394 1396 1397 1398 1398 1399 1399 1399 1398 1398 1398 1397 1396 1395 1394 1393 1391 1390 1388 1387 1385 1384 1383 1382 1381 1381 1380 1379 1378 1377 1376 1375 1374
1363 1367 1371 1375 1378 1381 1384 1386 1388 1389 1391 1392 1393 1394 1394 1394 1394 1394 1394 1393 1393 1392 1391 1390 1389 1387 1386 1385 1383 1382 1380 1379 1379 1378 1377 1376 1376 1375 1374 1373 1373 1372 1372
1363 1366 1370 1373 1376 1379 1381 1383 1385 1386 1388 1389 1390 1390 1390 1390 1390 1390 1389 1389 1388 1387 1386 1385 1383 1382 1381 1379 1378 1377 1376 1375 1374 1373 1373 1372 1372 1371 1371 1370 1370 1369 1369
1361 1365 1368 1371 1374 1376 1378 1380 1381 1383 1384 1385 1386 1386 1386 1386 1386 1385 1385 1384 1383 1382 1381 1380 1378 1377 1376 1374 1373 1372 1371 1370 1369 1369 1368 1368 1368 1367 1367 1367 1367 1367 1366
1360 1363 1366 1369 1371 1373 1375 1377 1378 1379 1380 1381 1381 1382 1382 1382 1381 1381 1380 1379 1378 1377 1376 1375 1373 1372 1371 1369 1368 1367 1366 1365 1365 1365 1364 1364 1364 1364 1364 1364 1364 1364 1364